Alpine, TX

8:14 PM CST on February 11, 2016 (GMT -0600)
Alpine

Weather History for KE38 - February, 2013

Change the Weather History Date:

Thursday, February 28, 2013

  Actual Average (KMRF) Record (KMRF)
Temperature  
Mean Temperature 36 °F -  
Max Temperature 53 °F 59 °F - (-1)
Min Temperature 19 °F 29 °F - (-1)
Degree Days  
Heating Degree Days 29    
Moisture  
Dew Point 11 °F    
Average Humidity 37    
Maximum Humidity 67    
Minimum Humidity 18    
Precipitation  
Precipitation 0.03 in - - ()
Sea Level Pressure  
Sea Level Pressure 30.31 in    
Wind  
Wind Speed 5 mph (South)    
Max Wind Speed 7 mph    
Max Gust Speed -    
Visibility 10 miles    
Events      
Averages and records for this station are not official NWS values.
T = Trace of Precipitation, MM = Missing Value Source: NWS Daily Summary

Daily Weather History Graph

Daily Weather History Graph

Search for Another Location

Airport or City:

Trip Planner

Search our weather history database for the weather conditions in past years. The results will help you decide how hot, cold, wet, or windy it might be!

Date:

Astronomy

Feb. 28, 2013 Rise Set
Actual Time 7:21 AM CST 6:53 PM CST
Civil Twilight 6:57 AM CST 7:17 PM CST
Nautical Twilight 6:29 AM CST 7:45 PM CST
Astronomical Twilight 6:01 AM CST 8:12 PM CST
Moon 10:03 PM CST (2/28) 8:49 AM CST (2/28)
Length of Visible Light 12h 19m
Length of Day
11h 31m
Waning Gibbous, 90% of the Moon is Illuminated
Feb 28
Waning Gibbous
Mar 4
Last Quarter
Mar 11
New
Mar 19
First Quarter
Mar 27
Full

Hourly Weather History & Observations

Time (CST) Temp. Windchill Dew Point Humidity Pressure Visibility Wind Dir Wind Speed Gust Speed Precip Events Conditions
12:15 AM 30.2 °F 23.4 °F 13.1 °F 49% 30.32 in 10.0 mi ESE 6.9 mph - N/A   Clear
12:35 AM 30.6 °F 23.8 °F 12.7 °F 48% 30.31 in 10.0 mi ESE 6.9 mph - N/A   Clear
12:55 AM 30.6 °F 24.7 °F 11.7 °F 45% 30.32 in 10.0 mi ESE 5.8 mph - N/A   Clear
1:15 AM 30.0 °F 23.2 °F 10.8 °F 45% 30.31 in 10.0 mi ESE 6.9 mph - N/A   Clear
1:35 AM 30.0 °F 24.1 °F 10.4 °F 44% 30.31 in 10.0 mi East 5.8 mph - N/A   Clear
1:55 AM 29.8 °F 26.3 °F 10.2 °F 44% 30.32 in 10.0 mi ESE 3.5 mph - N/A   Clear
2:15 AM 30.7 °F 27.3 °F 10.0 °F 42% 30.31 in 10.0 mi ESE 3.5 mph - N/A   Clear
2:35 AM 29.1 °F 24.1 °F 9.7 °F 44% 30.32 in 10.0 mi ESE 4.6 mph - N/A   Clear
2:55 AM 26.6 °F 20.0 °F 9.3 °F 48% 30.32 in 10.0 mi ESE 5.8 mph - N/A   Clear
3:15 AM 26.6 °F - 10.0 °F 50% 30.31 in 10.0 mi Calm Calm - N/A   Clear
3:35 AM 27.0 °F - 10.0 °F 49% 30.31 in 10.0 mi Calm Calm - N/A   Clear
3:55 AM 25.5 °F - 10.0 °F 52% 30.30 in 10.0 mi Calm Calm - N/A   Clear
4:15 AM 26.1 °F - 10.4 °F 52% 30.30 in 10.0 mi Calm Calm - N/A   Clear
4:35 AM 25.7 °F - 10.4 °F 52% 30.30 in 10.0 mi Calm Calm - N/A   Clear
4:55 AM 25.7 °F 20.1 °F 10.4 °F 52% 30.30 in 10.0 mi West 4.6 mph - N/A   Clear
5:15 AM 22.8 °F - 10.2 °F 59% 30.30 in 10.0 mi Calm Calm - N/A   Clear
5:35 AM 22.1 °F 13.7 °F 9.7 °F 59% 30.30 in 10.0 mi WSW 6.9 mph - N/A   Clear
5:55 AM 20.7 °F 15.8 °F 9.7 °F 63% 30.30 in 10.0 mi SSW 3.5 mph - N/A   Clear
6:15 AM 20.7 °F 15.8 °F 9.5 °F 62% 30.30 in 10.0 mi SW 3.5 mph - N/A   Clear
6:35 AM 20.8 °F 14.4 °F 10.2 °F 64% 30.31 in 10.0 mi SW 4.6 mph - N/A   Clear
6:55 AM 22.1 °F 14.7 °F 10.6 °F 61% 30.31 in 10.0 mi South 5.8 mph - N/A   Clear
7:15 AM 20.5 °F 12.8 °F 10.2 °F 65% 30.31 in 10.0 mi SSW 5.8 mph - N/A   Clear
7:35 AM 19.2 °F 10.2 °F 10.0 °F 67% 30.32 in 10.0 mi West 6.9 mph - N/A   Clear
7:55 AM 20.5 °F 12.8 °F 10.9 °F 67% 30.33 in 10.0 mi SW 5.8 mph - N/A   Clear
8:15 AM 24.3 °F 17.3 °F 12.2 °F 60% 30.32 in 10.0 mi West 5.8 mph - N/A   Clear
8:35 AM 29.8 °F 26.3 °F 14.2 °F 52% 30.34 in 10.0 mi SW 3.5 mph - N/A   Clear
8:55 AM - - - N/A% - - North - - N/A   Unknown
9:15 AM - - - N/A% - - North - - N/A   Unknown
9:35 AM 41.0 °F - 14.7 °F 34% 30.35 in 10.0 mi Calm Calm - 0.03 in   Clear
9:55 AM 42.1 °F - 14.9 °F 33% 30.35 in 10.0 mi North - - 0.03 in   Clear
10:15 AM 42.8 °F - 14.4 °F 32% 30.35 in 10.0 mi North - - N/A   Clear
10:35 AM 43.7 °F - 14.9 °F 31% 30.34 in 10.0 mi North - - N/A   Clear
10:55 AM 45.1 °F - 14.4 °F 29% 30.34 in 10.0 mi North - - N/A   Clear
11:15 AM 46.8 °F - 14.7 °F 28% 30.34 in 10.0 mi North - - N/A   Clear
11:35 AM 47.7 °F - 14.5 °F 27% 30.34 in 10.0 mi North - - N/A   Clear
11:55 AM 48.0 °F - 14.7 °F 26% 30.34 in 10.0 mi North - - N/A   Clear
12:35 PM 49.5 °F - 14.4 °F 25% 30.34 in 10.0 mi North - - N/A   Clear
12:55 PM 51.3 °F - 14.0 °F 23% 30.32 in 10.0 mi North - - N/A   Clear
1:15 PM 50.9 °F - 11.5 °F 21% 30.31 in 10.0 mi North - - N/A   Clear
1:55 PM 51.6 °F - 12.0 °F 21% 30.30 in 10.0 mi North - - N/A   Clear
2:15 PM 51.6 °F - 11.3 °F 20% 30.28 in 10.0 mi North - - N/A   Clear
2:35 PM 52.5 °F - 9.9 °F 18% 30.27 in 10.0 mi North - - N/A   Clear
2:55 PM 53.1 °F - 10.8 °F 18% 30.27 in 10.0 mi North - - N/A   Clear
3:15 PM 52.9 °F - 10.6 °F 18% 30.27 in 10.0 mi North - - N/A   Clear
3:35 PM 53.2 °F - 10.4 °F 18% 30.26 in 10.0 mi North - - N/A   Clear
3:55 PM 53.2 °F - 10.6 °F 18% 30.27 in 10.0 mi North - - N/A   Clear
4:15 PM 53.6 °F - 10.4 °F 18% 30.27 in 10.0 mi North - - N/A   Clear
4:35 PM 53.6 °F - 10.4 °F 18% 30.27 in 10.0 mi North - - N/A   Clear
4:55 PM 53.2 °F - 10.2 °F 18% 30.27 in 10.0 mi North - - N/A   Clear
5:15 PM 53.6 °F - 10.4 °F 18% 30.26 in 10.0 mi North - - N/A   Clear
5:35 PM 52.9 °F - 10.2 °F 18% 30.27 in 10.0 mi North - - N/A   Clear
5:55 PM 52.5 °F - 10.0 °F 18% 30.28 in 10.0 mi North - - N/A   Clear
6:15 PM 51.6 °F - 9.5 °F 18% 30.28 in 10.0 mi North - - N/A   Clear
6:35 PM 50.2 °F - 10.0 °F 20% 30.30 in 10.0 mi North - - N/A   Clear
6:55 PM 46.9 °F - 10.0 °F 22% 30.30 in 10.0 mi North - - N/A   Clear
7:15 PM 43.9 °F - 9.7 °F 25% 30.30 in 10.0 mi North - - N/A   Clear
7:35 PM 44.6 °F - 9.5 °F 24% 30.31 in 10.0 mi North - - N/A   Clear
7:55 PM 41.9 °F - 9.3 °F 26% 30.32 in 10.0 mi North - - N/A   Clear
8:15 PM 37.8 °F - 8.2 °F 29% 30.31 in 10.0 mi North - - N/A   Clear
8:35 PM 37.4 °F - 9.0 °F 31% 30.31 in 10.0 mi North - - N/A   Clear
8:55 PM 35.8 °F - 8.4 °F 32% 30.31 in 10.0 mi North - - N/A   Clear
9:15 PM 32.9 °F - 8.4 °F 36% 30.32 in 10.0 mi North - - N/A   Clear
9:35 PM 31.8 °F - 8.1 °F 37% 30.32 in 10.0 mi North - - N/A   Clear
9:55 PM 29.8 °F - 7.3 °F 39% 30.33 in 10.0 mi North - - N/A   Clear
10:15 PM 29.7 °F - 7.5 °F 39% 30.34 in 10.0 mi North - - N/A   Clear
10:35 PM 29.5 °F - 8.1 °F 41% 30.34 in 10.0 mi North - - N/A   Clear
10:55 PM 30.0 °F - 8.4 °F 40% 30.34 in 10.0 mi North - - N/A   Clear
11:15 PM 28.8 °F - 8.4 °F 42% 30.34 in 10.0 mi North - - N/A   Clear
11:35 PM 30.6 °F - 9.1 °F 41% 30.34 in 10.0 mi North - - N/A   Clear
11:55 PM 29.3 °F - 8.4 °F 42% 30.32 in 10.0 mi North - - N/A   Clear